Location: Drocourt
(49.0571°N, 1.7669°E)
Time: 00:06:30
(UTC+00:00)

SR - Pass Details

Date: 16 April 2024
Orbit: 579 x 859 km, 66.7° (Epoch: 25 May)

Event Time Altitude Azimuth Distance (km) Brightness Sun altitude
Rises 10:09:09 0° 326° (NNW) 3,051 ? 45.7°
Reaches altitude 10° 10:11:41 10° 334° (NNW) 2,086 ? 46.0°
Maximum altitude 10:16:06 40° 44° (NE) 935 ? 46.4°
Drops below altitude 10° 10:20:13 10° 115° (ESE) 1,946 ? 46.8°
Sets 10:22:30 0° 123° (ESE) 2,821 ? 47.0°
